When you browse on this site, cookies collect data to enhance your experience and personalize the content and advertising you see.
Visit our Privacy Policy to learn more. By continuing to use the site, you agree to this use of cookies and data.
  • In Czech Republic
  • List of Countries
  • For 7 days
  • Water Temperature
  • Satellite Maps
  • Weather Map
  • Weather Widgets
  • user-avatar
    Login

    Hourly Weather Tamale

    Today, 14 December, Friday

    Time Temperature Precipitation Wind Pressure Humidity
    00:00 +28°C° 0 mm 1 mps 744 mmHg 19%
    01:00 +28°C° 0 mm 1 mps 744 mmHg 19%
    02:00 +27°C° 0 mm 1 mps 744 mmHg 19%
    03:00 +27°C° 0 mm 1 mps 743 mmHg 19%
    04:00 +26°C° 0 mm 1 mps 743 mmHg 18%
    05:00 +26°C° 0 mm 1 mps 743 mmHg 18%
    06:00 +26°C° 0 mm 2 mps 744 mmHg 18%
    07:00 +28°C° 0 mm 2 mps 744 mmHg 16%
    08:00 +31°C° 0 mm 3 mps 744 mmHg 13%
    09:00 +35°C° 0 mm 3 mps 744 mmHg 11%
    10:00 +37°C° 0 mm 3 mps 744 mmHg 10%
    11:00 +39°C° 0 mm 3 mps 743 mmHg 10%
    12:00 +42°C° 0 mm 3 mps 743 mmHg 9%
    13:00 +42°C° 0 mm 3 mps 742 mmHg 9%
    14:00 +43°C° 0 mm 3 mps 742 mmHg 10%
    15:00 +43°C° 0 mm 3 mps 741 mmHg 10%
    16:00 +40°C° 0 mm 2 mps 741 mmHg 11%
    17:00 +38°C° 0 mm 2 mps 742 mmHg 13%
    18:00 +35°C° 0 mm 1 mps 742 mmHg 14%
    19:00 +34°C° 0 mm 1 mps 742 mmHg 15%
    20:00 +33°C° 0 mm 1 mps 743 mmHg 16%
    21:00 +32°C° 0 mm 1 mps 743 mmHg 17%
    22:00 +31°C° 0 mm 1 mps 743 mmHg 18%
    23:00 +30°C° 0 mm 1 mps 743 mmHg 18%

    Tomorrow, 15 December, Saturday

    Time Temperature Precipitation Wind Pressure Humidity
    00:00 +30°C° 0 mm 1 mps 743 mmHg 19%
    01:00 +29°C° 0 mm 1 mps 743 mmHg 20%
    02:00 +28°C° 0 mm 1 mps 743 mmHg 21%
    03:00 +28°C° 0 mm 1 mps 743 mmHg 21%
    04:00 +27°C° 0 mm 1 mps 743 mmHg 26%
    05:00 +26°C° 0 mm 1 mps 744 mmHg 30%
    06:00 +24°C° 0 mm 0 mps 744 mmHg 35%
    07:00 +28°C° 0 mm 1 mps 745 mmHg 35%
    08:00 +31°C° 0 mm 1 mps 745 mmHg 35%
    09:00 +33°C° 0 mm 1 mps 746 mmHg 35%
    10:00 +36°C° 0 mm 2 mps 745 mmHg 27%
    11:00 +38°C° 0 mm 2 mps 745 mmHg 19%
    12:00 +42°C° 0 mm 3 mps 744 mmHg 12%
    13:00 +42°C° 0 mm 3 mps 744 mmHg 11%
    14:00 +42°C° 0 mm 2 mps 743 mmHg 9%
    15:00 +42°C° 0 mm 2 mps 742 mmHg 8%
    16:00 +40°C° 0 mm 2 mps 742 mmHg 10%
    17:00 +37°C° 0 mm 1 mps 742 mmHg 11%
    18:00 +35°C° 0 mm 1 mps 742 mmHg 12%
    19:00 +34°C° 0 mm 1 mps 742 mmHg 13%
    20:00 +33°C° 0 mm 1 mps 743 mmHg 13%
    21:00 +32°C° 0 mm 1 mps 743 mmHg 14%
    22:00 +31°C° 0 mm 1 mps 743 mmHg 15%
    23:00 +30°C° 0 mm 1 mps 743 mmHg 15%

    Day after tomorrow, 16 December, Sunday

    Time Temperature Precipitation Wind Pressure Humidity
    00:00 +30°C° 0 mm 1 mps 743 mmHg 16%
    01:00 +29°C° 0 mm 1 mps 743 mmHg 17%
    02:00 +28°C° 0 mm 1 mps 743 mmHg 17%
    03:00 +28°C° 0 mm 1 mps 742 mmHg 18%
    04:00 +27°C° 0 mm 1 mps 743 mmHg 21%
    05:00 +26°C° 0 mm 1 mps 743 mmHg 24%
    06:00 +26°C° 0 mm 1 mps 743 mmHg 27%
    07:00 +28°C° 0 mm 1 mps 744 mmHg 29%
    08:00 +31°C° 0 mm 1 mps 744 mmHg 30%
    09:00 +33°C° 0 mm 1 mps 745 mmHg 32%
    10:00 +35°C° 0 mm 1 mps 745 mmHg 25%
    11:00 +39°C° 0 mm 1 mps 744 mmHg 19%
    12:00 +41°C° 0 mm 2 mps 743 mmHg 12%
    13:00 +41°C° 0 mm 2 mps 743 mmHg 11%
    14:00 +42°C° 0 mm 2 mps 742 mmHg 10%
    15:00 +42°C° 0 mm 1 mps 741 mmHg 8%
    16:00 +40°C° 0 mm 1 mps 741 mmHg 9%
    17:00 +37°C° 0 mm 1 mps 741 mmHg 10%
    18:00 +35°C° 0 mm 1 mps 742 mmHg 11%
    19:00 +34°C° 0 mm 1 mps 742 mmHg 12%
    20:00 +33°C° 0 mm 1 mps 743 mmHg 13%
    21:00 +32°C° 0 mm 1 mps 743 mmHg 13%
    22:00 +31°C° 0 mm 1 mps 743 mmHg 15%
    23:00 +30°C° 0 mm 1 mps 743 mmHg 16%

    17 December, Monday

    Time Temperature Precipitation Wind Pressure Humidity
    00:00 +27°C° 0 mm 0 mps 743 mmHg 18%
    01:00 +27°C° 0 mm 0 mps 743 mmHg 19%
    02:00 +26°C° 0 mm 0 mps 742 mmHg 20%
    03:00 +25°C° 0 mm 0 mps 742 mmHg 21%
    04:00 +25°C° 0 mm 0 mps 742 mmHg 25%
    05:00 +24°C° 0 mm 0 mps 742 mmHg 28%
    06:00 +24°C° 0 mm 0 mps 743 mmHg 31%
    07:00 +28°C° 0 mm 1 mps 743 mmHg 34%
    08:00 +30°C° 0 mm 1 mps 744 mmHg 36%
    09:00 +34°C° 0 mm 2 mps 744 mmHg 38%
    10:00 +35°C° 0 mm 1 mps 744 mmHg 30%
    11:00 +39°C° 0 mm 1 mps 743 mmHg 23%
    12:00 +41°C° 0 mm 1 mps 743 mmHg 15%
    13:00 +42°C° 0 mm 1 mps 742 mmHg 14%
    14:00 +42°C° 0 mm 1 mps 741 mmHg 12%
    15:00 +42°C° 0 mm 1 mps 740 mmHg 11%
    16:00 +40°C° 0 mm 1 mps 741 mmHg 12%
    17:00 +37°C° 0 mm 1 mps 741 mmHg 13%
    18:00 +35°C° 0 mm 1 mps 741 mmHg 14%
    19:00 +34°C° 0 mm 1 mps 742 mmHg 14%
    20:00 +33°C° 0 mm 1 mps 742 mmHg 15%
    21:00 +32°C° 0 mm 1 mps 743 mmHg 16%
    22:00 +31°C° 0 mm 1 mps 743 mmHg 18%
    23:00 +30°C° 0 mm 1 mps 743 mmHg 20%

    18 December, Tuesday

    Time Temperature Precipitation Wind Pressure Humidity
    00:00 +30°C° 0 mm 1 mps 742 mmHg 22%
    01:00 +29°C° 0 mm 1 mps 742 mmHg 22%
    02:00 +28°C° 0 mm 1 mps 742 mmHg 22%
    03:00 +28°C° 0 mm 1 mps 741 mmHg 23%
    04:00 +27°C° 0 mm 1 mps 742 mmHg 23%
    05:00 +27°C° 0 mm 1 mps 742 mmHg 24%
    06:00 +26°C° 0 mm 1 mps 743 mmHg 25%
    07:00 +29°C° 0 mm 1 mps 743 mmHg 27%
    08:00 +31°C° 0 mm 1 mps 744 mmHg 28%
    09:00 +33°C° 0 mm 1 mps 745 mmHg 29%
    10:00 +36°C° 0 mm 1 mps 744 mmHg 26%
    11:00 +39°C° 0 mm 1 mps 743 mmHg 24%
    12:00 +42°C° 0 mm 1 mps 743 mmHg 21%
    13:00 +42°C° 0 mm 1 mps 742 mmHg 19%
    14:00 +42°C° 0 mm 1 mps 741 mmHg 17%
    15:00 +39°C° 0 mm 0 mps 740 mmHg 16%
    16:00 +41°C° 0 mm 1 mps 741 mmHg 17%
    17:00 +39°C° 0 mm 1 mps 741 mmHg 18%
    18:00 +36°C° 0 mm 1 mps 741 mmHg 19%
    19:00 +35°C° 0 mm 1 mps 742 mmHg 19%
    20:00 +34°C° 0 mm 1 mps 742 mmHg 19%
    21:00 +33°C° 0 mm 1 mps 743 mmHg 19%
    22:00 +32°C° 0 mm 1 mps 743 mmHg 19%
    23:00 +31°C° 0 mm 1 mps 743 mmHg 19%

    19 December, Wednesday

    Time Temperature Precipitation Wind Pressure Humidity
    00:00 +30°C° 0 mm 1 mps 742 mmHg 20%
    01:00 +29°C° 0 mm 1 mps 742 mmHg 20%
    02:00 +29°C° 0 mm 1 mps 742 mmHg 20%
    03:00 +28°C° 0 mm 1 mps 742 mmHg 20%
    04:00 +28°C° 0 mm 1 mps 742 mmHg 23%
    05:00 +27°C° 0 mm 1 mps 743 mmHg 25%
    06:00 +27°C° 0 mm 1 mps 743 mmHg 28%
    07:00 +29°C° 0 mm 1 mps 743 mmHg 29%
    08:00 +31°C° 0 mm 1 mps 744 mmHg 31%
    09:00 +33°C° 0 mm 1 mps 745 mmHg 33%
    10:00 +35°C° 0 mm 1 mps 744 mmHg 29%
    11:00 +39°C° 0 mm 1 mps 743 mmHg 25%
    12:00 +38°C° 0 mm 0 mps 743 mmHg 21%
    13:00 +38°C° 0 mm 0 mps 742 mmHg 20%
    14:00 +38°C° 0 mm 0 mps 741 mmHg 19%
    15:00 +38°C° 0 mm 0 mps 741 mmHg 17%
    16:00 +40°C° 0 mm 1 mps 741 mmHg 19%
    17:00 +37°C° 0 mm 1 mps 741 mmHg 20%
    18:00 +35°C° 0 mm 1 mps 741 mmHg 21%
    19:00 +34°C° 0 mm 1 mps 742 mmHg 22%
    20:00 +33°C° 0 mm 1 mps 742 mmHg 23%
    21:00 +32°C° 0 mm 1 mps 742 mmHg 24%
    22:00 +31°C° 0 mm 1 mps 742 mmHg 23%
    23:00 +30°C° 0 mm 1 mps 742 mmHg 23%
    Show more